Location: Fort Wayne
(41.1310°N, 85.1290°W)
Time: 22:55:06
(UTC-04:00)

Cosmos 1980 - Visible Passes

Search period start: 25 October 2014 00:00
Search period end: 03 November 2014 23:00
Orbit: 838 x 849 km, 71.0° (Epoch: 25 October)

Date Brightness Start Highest point End Pass type
(mag) Time Alt. Az. Time Alt. Az. Time Alt. Az.
25 Oct 4.6 05:09:55 44° NE 05:10:43 47° ENE 05:16:10 10° SE visible
25 Oct 4.7 06:51:55 18° WNW 06:54:28 25° WSW 06:58:57 10° SSW visible
25 Oct 3.7 19:56:24 10° SSW 20:02:03 85° WNW 20:07:44 10° NNE visible
25 Oct 6.4 21:43:57 10° W 21:47:01 15° NW 21:50:06 10° NNW visible
26 Oct 5.0 04:57:51 36° ESE 04:57:51 36° ESE 05:01:41 10° SE visible
26 Oct 4.6 06:39:51 26° W 06:40:03 26° WSW 06:44:37 10° SSW visible
26 Oct 3.7 19:41:58 10° SSW 19:47:36 89° WNW 19:53:18 10° NNE visible
26 Oct 6.3 21:29:20 10° W 21:32:32 15° NW 21:35:45 10° NNW visible
27 Oct 5.9 04:45:42 18° SE 04:45:42 18° SE 04:47:11 10° SE visible
27 Oct 5.0 06:27:42 22° SW 06:27:42 22° SW 06:30:17 10° SSW visible
27 Oct 3.7 19:27:31 10° SSW 19:33:09 88° ESE 19:38:51 10° NNE visible
27 Oct 6.3 21:14:43 10° W 21:18:03 16° NW 21:21:24 10° N visible
28 Oct 5.7 06:15:25 12° SSW 06:15:25 12° SSW 06:15:56 10° SSW visible
28 Oct 3.7 19:13:05 10° SSW 19:18:43 85° ESE 19:24:24 10° NNE visible
28 Oct 6.3 21:00:06 10° W 21:03:34 16° NW 21:07:02 10° N visible
29 Oct 3.7 18:58:38 10° SSW 19:04:16 82° ESE 19:09:57 10° NNE visible
29 Oct 6.2 20:45:30 10° W 20:49:05 17° NW 20:52:41 10° N visible
30 Oct 6.2 20:30:55 10° W 20:34:36 18° NW 20:38:19 10° N visible
31 Oct 6.2 20:16:19 10° W 20:20:07 18° NW 20:23:56 10° N visible
01 Nov 6.1 20:01:45 10° W 20:05:38 19° NW 20:09:34 10° N visible
02 Nov 6.1 18:47:10 10° W 18:51:10 19° NW 18:55:11 10° N visible
03 Nov 6.0 18:32:36 10° W 18:36:41 20° NW 18:40:48 10° N visible
